Breckenridge, TX

10:50 PM CDT on May 25, 2017 (GMT -0500)
Stephens County

Weather History for KBKD - June, 2013

Change the Weather History Date:

Sunday, June 9, 2013

  Actual Average (KMWL) Record (KMWL)
Temperature  
Mean Temperature 79 °F -  
Max Temperature 92 °F 86 °F 97 °F (2006)
Min Temperature 66 °F 66 °F 62 °F (2014)
Cooling Degree Days 14    
Growing Degree Days 29 (Base 50)    
Moisture  
Dew Point 62 °F    
Average Humidity 60    
Maximum Humidity 97    
Minimum Humidity 30    
Precipitation  
Precipitation 0.02 in - - ()
Sea Level Pressure  
Sea Level Pressure 29.92 in    
Wind  
Wind Speed 7 mph (SE)    
Max Wind Speed 17 mph    
Max Gust Speed 44 mph    
Visibility 10 miles    
Events Rain , Thunderstorm    
Averages and records for this station are not official NWS values.
T = Trace of Precipitation, MM = Missing Value Source: NWS Daily Summary

Daily Weather History Graph

Daily Weather History Graph

Search for Another Location

Airport or City:

Trip Planner

Search our weather history database for the weather conditions in past years. The results will help you decide how hot, cold, wet, or windy it might be!

Date:

Astronomy

Jun. 09, 2013 Rise Set
Actual Time 6:27 AM CDT 8:42 PM CDT
Civil Twilight 5:58 AM CDT 9:11 PM CDT
Nautical Twilight 5:23 AM CDT 9:46 PM CDT
Astronomical Twilight 4:46 AM CDT 10:23 PM CDT
Moon 7:21 AM CDT (6/9) 9:34 PM CDT (6/9)
Length of Visible Light 15h 12m
Length of Day
14h 15m
New Moon, 1% of the Moon is Illuminated
Jun 9
New Moon
Jun 16
First Quarter
Jun 23
Full
Jun 29
Last Quarter
Jul 8
New

Hourly Weather History & Observations

Time (CDT) Temp. Heat Index Dew Point Humidity Pressure Visibility Wind Dir Wind Speed Gust Speed Precip Events Conditions
12:15 AM 79.0 °F - 60.8 °F 54% 29.83 in 10.0 mi SE 10.4 mph - N/A   Scattered Clouds
12:35 AM 79.0 °F - 61.3 °F 55% 29.83 in 10.0 mi SE 10.4 mph - N/A   Clear
12:55 AM 78.8 °F - 61.9 °F 56% 29.83 in 10.0 mi SE 9.2 mph - N/A   Clear
1:15 AM 78.3 °F - 62.2 °F 58% 29.83 in 10.0 mi SE 9.2 mph - N/A   Clear
1:35 AM 78.3 °F - 62.6 °F 58% 29.85 in 10.0 mi SE 9.2 mph - N/A   Clear
1:55 AM 78.3 °F - 62.8 °F 59% 29.84 in 10.0 mi SE 9.2 mph - N/A   Clear
2:15 AM 77.9 °F - 63.0 °F 60% 29.85 in 10.0 mi SE 5.8 mph - N/A   Clear
2:35 AM 77.4 °F - 63.3 °F 62% 29.86 in 10.0 mi Calm Calm - N/A   Clear
2:55 AM 76.3 °F - 64.2 °F 66% 29.92 in 10.0 mi NW 15.0 mph 29.9 mph N/A   Scattered Clouds
3:15 AM 66.9 °F - 64.6 °F 92% 29.97 in 3.0 mi NNW 17.3 mph 43.7 mph N/A Rain , Thunderstorm Heavy Thunderstorms and Rain
3:35 AM 66.2 °F - 64.8 °F 95% 29.96 in 7.0 mi North 12.7 mph 31.1 mph N/A Rain , Thunderstorm Rain
3:55 AM 66.2 °F - 64.9 °F 96% 29.95 in 10.0 mi North 11.5 mph 16.1 mph N/A Rain , Thunderstorm Light Thunderstorms and Rain
4:15 AM 66.4 °F - 64.8 °F 95% 29.96 in 10.0 mi Calm Calm - N/A Rain , Thunderstorm Thunderstorms and Rain
4:35 AM 66.2 °F - 64.4 °F 94% 29.96 in 7.0 mi Calm Calm - N/A Rain , Thunderstorm Thunderstorms and Rain
4:55 AM 66.2 °F - 64.6 °F 94% 29.96 in 10.0 mi WSW 3.5 mph - N/A Rain Rain
5:15 AM 66.4 °F - 64.9 °F 95% 29.95 in 10.0 mi SSW 4.6 mph - N/A Rain Rain
5:35 AM 66.2 °F - 64.9 °F 96% 29.92 in 10.0 mi South 8.1 mph - N/A Rain Light Rain
5:55 AM 66.2 °F - 65.3 °F 97% 29.93 in 10.0 mi SSW 10.4 mph - 0.01 in Rain Rain
6:15 AM 66.2 °F - 65.1 °F 96% 29.92 in 10.0 mi South 6.9 mph - N/A   Mostly Cloudy
6:35 AM 66.7 °F - 65.1 °F 95% 29.91 in 10.0 mi North - - N/A   Overcast
6:55 AM 66.4 °F - 65.3 °F 96% 29.91 in 10.0 mi WSW 5.8 mph - N/A   Mostly Cloudy
7:15 AM 66.6 °F - 65.7 °F 97% 29.91 in 10.0 mi SSW 5.8 mph - N/A   Scattered Clouds
7:35 AM 67.1 °F - 65.7 °F 95% 29.91 in 10.0 mi South 6.9 mph - N/A   Clear
7:55 AM 68.2 °F - 65.8 °F 92% 29.93 in 10.0 mi SSE 5.8 mph - N/A   Clear
8:15 AM 69.1 °F - 66.0 °F 90% 29.93 in 10.0 mi SSE 8.1 mph - N/A   Clear
8:35 AM 70.2 °F - 65.5 °F 85% 29.94 in 10.0 mi SE 8.1 mph - N/A   Clear
8:55 AM 70.9 °F - 64.8 °F 81% 29.96 in 10.0 mi South 4.6 mph - N/A   Clear
9:15 AM 72.0 °F - 64.2 °F 77% 29.97 in 10.0 mi South 3.5 mph - N/A   Clear
9:35 AM 73.8 °F - 64.6 °F 73% 29.96 in 10.0 mi SSE 5.8 mph - N/A   Clear
9:55 AM 75.4 °F - 64.9 °F 70% 29.97 in 10.0 mi South 5.8 mph - N/A   Clear
10:15 AM 76.6 °F - 64.4 °F 66% 29.97 in 10.0 mi SSE 6.9 mph - N/A   Clear
10:35 AM 78.4 °F - 64.2 °F 62% 29.97 in 10.0 mi SE 8.1 mph - 0.01 in   Clear
10:55 AM 79.2 °F - 63.9 °F 59% 29.97 in 10.0 mi SE 8.1 mph - 0.01 in   Clear
11:15 AM 80.1 °F 81.2 °F 62.1 °F 54% 29.97 in 10.0 mi SSE 6.9 mph - N/A   Clear
11:35 AM 81.3 °F 82.3 °F 62.4 °F 52% 29.96 in 10.0 mi SSE 5.8 mph - N/A   Clear
11:55 AM 82.2 °F 83.2 °F 62.6 °F 51% 29.96 in 10.0 mi South 5.8 mph - N/A   Clear
12:15 PM 82.9 °F 83.7 °F 61.7 °F 49% 29.96 in 10.0 mi Calm Calm - N/A   Clear
12:35 PM 83.5 °F 84.1 °F 62.1 °F 48% 29.96 in 10.0 mi Calm Calm - N/A   Clear
12:55 PM 85.3 °F 85.9 °F 62.1 °F 46% 29.95 in 10.0 mi NNW 4.6 mph - N/A   Clear
1:15 PM 85.6 °F 85.9 °F 61.2 °F 44% 29.95 in 10.0 mi Calm Calm - N/A   Clear
1:35 PM 87.4 °F 86.5 °F 58.5 °F 37% 29.94 in 10.0 mi NNE 5.8 mph - N/A   Clear
1:55 PM 87.8 °F 87.1 °F 59.0 °F 38% 29.94 in 10.0 mi ENE 4.6 mph - N/A   Clear
2:15 PM 88.2 °F 86.9 °F 57.4 °F 35% 29.93 in 10.0 mi North 6.9 mph - N/A   Clear
2:35 PM 87.6 °F 86.5 °F 57.7 °F 36% 29.93 in 10.0 mi NNE 3.5 mph - N/A   Clear
2:55 PM 88.7 °F 87.8 °F 58.5 °F 36% 29.93 in 10.0 mi East 3.5 mph - N/A   Clear
3:15 PM 89.2 °F 88.4 °F 58.8 °F 36% 29.93 in 10.0 mi NNE 4.6 mph - N/A   Clear
3:35 PM 89.4 °F 88.7 °F 59.0 °F 36% 29.92 in 10.0 mi NE 3.5 mph - N/A   Clear
3:55 PM 90.9 °F 89.4 °F 57.4 °F 32% 29.92 in 10.0 mi NNE 9.2 mph - N/A   Clear
4:15 PM 91.6 °F 90.1 °F 56.7 °F 31% 29.91 in 10.0 mi NE 9.2 mph - N/A   Clear
4:35 PM 91.0 °F 89.7 °F 57.4 °F 32% 29.91 in 10.0 mi NNE 5.8 mph - N/A   Clear
4:55 PM 91.6 °F 90.4 °F 57.6 °F 32% 29.90 in 10.0 mi NNE 8.1 mph - N/A   Clear
5:15 PM 91.9 °F 90.6 °F 56.8 °F 31% 29.90 in 10.0 mi NNE 8.1 mph - N/A   Clear
5:35 PM 92.1 °F 90.5 °F 56.8 °F 30% 29.89 in 10.0 mi NE 5.8 mph - N/A   Clear
5:55 PM 92.8 °F 91.4 °F 57.6 °F 30% 29.89 in 10.0 mi ENE 8.1 mph - N/A   Clear
6:15 PM 91.8 °F 90.6 °F 57.7 °F 32% 29.89 in 10.0 mi ESE 6.9 mph - N/A   Clear
6:35 PM 91.6 °F 90.1 °F 56.8 °F 31% 29.89 in 10.0 mi East 5.8 mph - N/A   Clear
6:55 PM 91.2 °F 89.6 °F 57.0 °F 31% 29.89 in 10.0 mi ESE 3.5 mph - N/A   Clear
7:15 PM 90.7 °F 89.0 °F 56.5 °F 31% 29.90 in 10.0 mi ESE 5.8 mph - N/A   Clear
7:35 PM 90.5 °F 89.0 °F 57.2 °F 32% 29.90 in 10.0 mi ESE 4.6 mph - N/A   Clear
7:55 PM 89.6 °F 88.4 °F 58.1 °F 34% 29.91 in 10.0 mi SE 3.5 mph - N/A   Clear
8:15 PM 88.0 °F 87.1 °F 58.6 °F 37% 29.91 in 10.0 mi Calm Calm - N/A   Clear
8:35 PM 86.2 °F 86.3 °F 61.5 °F 43% 29.91 in 10.0 mi SE 5.8 mph - N/A   Clear
8:55 PM 84.0 °F 84.9 °F 62.8 °F 49% 29.91 in 10.0 mi SE 4.6 mph - N/A   Clear
9:15 PM 81.9 °F 83.4 °F 64.2 °F 55% 29.92 in 10.0 mi SE 6.9 mph - N/A   Clear
9:35 PM 80.8 °F 82.5 °F 64.6 °F 58% 29.93 in 10.0 mi SSE 6.9 mph - N/A   Clear
9:55 PM 79.9 °F - 64.0 °F 58% 29.94 in 10.0 mi SE 6.9 mph - N/A   Clear
10:15 PM 79.2 °F - 64.2 °F 60% 29.95 in 10.0 mi SE 8.1 mph - N/A   Clear
10:35 PM 78.1 °F - 64.6 °F 63% 29.96 in 10.0 mi SSE 8.1 mph - N/A   Clear
10:55 PM 78.1 °F - 64.4 °F 63% 29.96 in 10.0 mi SSE 9.2 mph - N/A   Clear
11:15 PM 76.6 °F - 64.6 °F 66% 29.96 in 10.0 mi SSE 9.2 mph - N/A   Clear
11:35 PM 75.9 °F - 64.4 °F 67% 29.96 in 10.0 mi SSE 8.1 mph - N/A   Clear
11:55 PM 76.1 °F - 64.4 °F 67% 29.96 in 10.0 mi SSE 8.1 mph - N/A   Clear